Time,TemperatureF,DewpointF,PressureIn,WindDirection,WindDirectionDegrees,WindSpeedMPH,WindSpeedGustMPH,Humidity,HourlyPrecipIn,Conditions,Clouds,dailyrainin,SoftwareType,DateUTC
2013-03-30 00:00:00,47.7,41.2,29.80,North,9,0.0,0.0,78,0.00,,---,0.00,VWS V14.01,2013-03-30 07:00:00,
2013-03-30 00:05:00,47.3,40.8,29.80,North,9,0.0,0.0,78,0.00,,---,0.00,VWS V14.01,2013-03-30 07:05:00,
2013-03-30 00:10:00,47.3,40.8,29.80,North,9,0.0,0.0,78,0.00,,---,0.00,VWS V14.01,2013-03-30 07:10:00,
2013-03-30 00:15:00,47.1,41.0,29.80,North,9,0.0,0.0,79,0.00,,---,0.00,VWS V14.01,2013-03-30 07:15:00,
2013-03-30 00:20:00,47.1,41.0,29.80,North,9,0.0,0.0,79,0.00,,---,0.00,VWS V14.01,2013-03-30 07:20:00,
2013-03-30 00:25:00,46.6,40.4,29.80,North,9,0.0,0.0,79,0.00,,---,0.00,VWS V14.01,2013-03-30 07:25:00,
2013-03-30 00:30:00,46.4,40.6,29.80,North,9,0.0,0.0,80,0.00,,---,0.00,VWS V14.01,2013-03-30 07:30:00,
2013-03-30 00:35:00,46.4,40.6,29.80,North,9,0.0,0.0,80,0.00,,---,0.00,VWS V14.01,2013-03-30 07:35:00,
2013-03-30 00:40:00,46.2,40.7,29.80,North,9,0.0,0.0,81,0.00,,---,0.00,VWS V14.01,2013-03-30 07:40:00,
2013-03-30 00:45:00,46.2,40.7,29.80,North,9,0.0,0.0,81,0.00,,---,0.00,VWS V14.01,2013-03-30 07:45:00,
2013-03-30 00:50:00,45.9,40.4,29.80,North,9,0.0,0.0,81,0.00,,---,0.00,VWS V14.01,2013-03-30 07:50:00,
2013-03-30 00:55:00,45.7,40.2,29.80,North,9,0.0,0.0,81,0.00,,---,0.00,VWS V14.01,2013-03-30 07:55:00,
2013-03-30 01:00:00,45.9,40.4,29.80,North,9,0.0,0.0,81,0.00,,---,0.00,VWS V14.01,2013-03-30 08:00:00,
2013-03-30 01:05:00,45.9,40.4,29.80,North,9,0.0,0.0,81,0.00,,---,0.00,VWS V14.01,2013-03-30 08:05:00,
2013-03-30 01:10:00,45.5,40.0,29.80,North,9,0.0,0.0,81,0.00,,---,0.00,VWS V14.01,2013-03-30 08:10:00,
2013-03-30 01:15:00,45.5,40.0,29.80,North,9,0.0,0.0,81,0.00,,---,0.00,VWS V14.01,2013-03-30 08:15:00,
2013-03-30 01:20:00,45.1,40.0,29.80,North,9,0.0,0.0,82,0.00,,---,0.00,VWS V14.01,2013-03-30 08:20:00,
2013-03-30 01:25:00,45.1,40.0,29.80,North,9,0.0,0.0,82,0.00,,---,0.00,VWS V14.01,2013-03-30 08:25:00,
2013-03-30 01:30:00,45.1,40.0,29.80,North,9,0.0,0.0,82,0.00,,---,0.00,VWS V14.01,2013-03-30 08:30:00,
2013-03-30 01:35:00,44.8,39.6,29.80,North,9,0.0,0.0,82,0.00,,---,0.00,VWS V14.01,2013-03-30 08:35:00,
2013-03-30 01:40:00,44.8,39.6,29.80,North,9,0.0,0.0,82,0.00,,---,0.00,VWS V14.01,2013-03-30 08:40:00,
2013-03-30 01:45:00,44.8,39.6,29.80,North,9,0.0,0.0,82,0.00,,---,0.00,VWS V14.01,2013-03-30 08:45:00,
2013-03-30 01:50:00,44.8,39.6,29.80,North,9,0.0,0.0,82,0.00,,---,0.00,VWS V14.01,2013-03-30 08:50:00,
2013-03-30 01:55:00,44.6,39.5,29.80,North,9,0.0,0.0,82,0.00,,---,0.00,VWS V14.01,2013-03-30 08:55:00,
2013-03-30 02:00:00,44.6,39.5,29.80,North,9,0.0,0.0,82,0.00,,---,0.00,VWS V14.01,2013-03-30 09:00:00,
2013-03-30 02:05:00,44.2,39.4,29.80,North,9,0.0,0.0,83,0.00,,---,0.00,VWS V14.01,2013-03-30 09:05:00,
2013-03-30 02:10:00,44.2,39.4,29.80,North,9,0.0,0.0,83,0.00,,---,0.00,VWS V14.01,2013-03-30 09:10:00,
2013-03-30 02:15:00,44.2,39.4,29.80,North,9,0.0,0.0,83,0.00,,---,0.00,VWS V14.01,2013-03-30 09:15:00,
2013-03-30 02:20:00,44.1,39.2,29.80,North,9,0.0,0.0,83,0.00,,---,0.00,VWS V14.01,2013-03-30 09:20:00,
2013-03-30 02:25:00,44.1,39.2,29.80,North,9,0.0,0.0,83,0.00,,---,0.00,VWS V14.01,2013-03-30 09:25:00,
2013-03-30 02:30:00,43.7,38.9,29.80,North,9,0.0,0.0,83,0.00,,---,0.00,VWS V14.01,2013-03-30 09:30:00,
2013-03-30 02:34:00,43.7,38.9,29.80,North,9,0.0,0.0,83,0.00,,---,0.00,VWS V14.01,2013-03-30 09:34:00,
2013-03-30 02:39:00,43.5,38.7,29.80,North,9,0.0,0.0,83,0.00,,---,0.00,VWS V14.01,2013-03-30 09:39:00,
2013-03-30 02:44:00,43.5,38.7,29.80,North,9,0.0,0.0,83,0.00,,---,0.00,VWS V14.01,2013-03-30 09:44:00,
2013-03-30 02:49:00,43.3,38.5,29.80,North,9,0.0,0.0,83,0.00,,---,0.00,VWS V14.01,2013-03-30 09:49:00,
2013-03-30 02:54:00,43.3,38.5,29.80,North,9,0.0,0.0,83,0.00,,---,0.00,VWS V14.01,2013-03-30 09:54:00,
2013-03-30 02:59:00,43.0,38.5,29.80,North,9,0.0,0.0,84,0.00,,---,0.00,VWS V14.01,2013-03-30 09:59:00,
2013-03-30 03:04:00,43.0,38.5,29.80,North,9,0.0,0.0,84,0.00,,---,0.00,VWS V14.01,2013-03-30 10:04:00,
2013-03-30 03:09:00,42.8,38.3,29.80,North,9,0.0,0.0,84,0.00,,---,0.00,VWS V14.01,2013-03-30 10:09:00,
2013-03-30 03:14:00,42.4,38.0,29.80,North,9,0.0,0.0,84,0.00,,---,0.00,VWS V14.01,2013-03-30 10:14:00,
2013-03-30 03:19:00,42.4,38.0,29.80,North,9,0.0,0.0,84,0.00,,---,0.00,VWS V14.01,2013-03-30 10:19:00,
2013-03-30 03:24:00,42.4,38.3,29.80,North,9,0.0,0.0,85,0.00,,---,0.00,VWS V14.01,2013-03-30 10:24:00,
2013-03-30 03:29:00,42.4,38.3,29.80,North,9,0.0,0.0,85,0.00,,---,0.00,VWS V14.01,2013-03-30 10:29:00,
2013-03-30 03:34:00,42.3,38.1,29.80,North,9,0.0,0.0,85,0.00,,---,0.00,VWS V14.01,2013-03-30 10:34:00,
2013-03-30 03:39:00,42.3,38.1,29.80,North,9,0.0,0.0,85,0.00,,---,0.00,VWS V14.01,2013-03-30 10:39:00,
2013-03-30 03:44:00,41.9,37.7,29.80,North,9,0.0,0.0,85,0.00,,---,0.00,VWS V14.01,2013-03-30 10:44:00,
2013-03-30 03:49:00,41.7,37.5,29.80,North,9,0.0,0.0,85,0.00,,---,0.00,VWS V14.01,2013-03-30 10:49:00,
2013-03-30 03:54:00,41.7,37.5,29.80,North,9,0.0,0.0,85,0.00,,---,0.00,VWS V14.01,2013-03-30 10:54:00,
2013-03-30 03:59:00,41.5,37.4,29.80,North,9,0.0,0.0,85,0.00,,---,0.00,VWS V14.01,2013-03-30 10:59:00,
2013-03-30 04:04:00,41.5,37.4,29.77,North,9,0.0,0.0,85,0.00,,---,0.00,VWS V14.01,2013-03-30 11:04:00,
2013-03-30 04:09:00,41.4,37.2,29.77,North,9,0.0,0.0,85,0.00,,---,0.00,VWS V14.01,2013-03-30 11:09:00,
2013-03-30 04:14:00,41.2,37.0,29.77,North,9,0.0,0.0,85,0.00,,---,0.00,VWS V14.01,2013-03-30 11:14:00,
2013-03-30 04:19:00,41.2,37.0,29.77,North,9,0.0,0.0,85,0.00,,---,0.00,VWS V14.01,2013-03-30 11:19:00,
2013-03-30 04:24:00,41.2,37.0,29.77,North,9,0.0,0.0,85,0.00,,---,0.00,VWS V14.01,2013-03-30 11:24:00,
2013-03-30 04:29:00,41.2,37.0,29.77,North,9,0.0,0.0,85,0.00,,---,0.00,VWS V14.01,2013-03-30 11:29:00,
2013-03-30 04:34:00,41.2,37.0,29.77,North,9,0.0,0.0,85,0.00,,---,0.00,VWS V14.01,2013-03-30 11:34:00,
2013-03-30 04:39:00,40.8,37.0,29.77,North,9,0.0,0.0,86,0.00,,---,0.00,VWS V14.01,2013-03-30 11:39:00,
2013-03-30 04:44:00,40.8,37.0,29.77,North,9,0.0,0.0,86,0.00,,---,0.00,VWS V14.01,2013-03-30 11:44:00,
2013-03-30 04:49:00,40.6,36.8,29.77,North,9,0.0,0.0,86,0.00,,---,0.00,VWS V14.01,2013-03-30 11:49:00,
2013-03-30 04:54:00,40.5,36.6,29.77,North,9,0.0,0.0,86,0.00,,---,0.00,VWS V14.01,2013-03-30 11:54:00,
2013-03-30 04:59:00,40.5,36.6,29.77,North,9,0.0,0.0,86,0.00,,---,0.00,VWS V14.01,2013-03-30 11:59:00,
2013-03-30 05:04:00,40.5,36.6,29.77,North,9,0.0,0.0,86,0.00,,---,0.00,VWS V14.01,2013-03-30 12:04:00,
2013-03-30 05:09:00,40.5,36.6,29.77,North,9,0.0,0.0,86,0.00,,---,0.00,VWS V14.01,2013-03-30 12:09:00,
2013-03-30 05:14:00,40.3,36.4,29.77,North,9,0.0,0.0,86,0.00,,---,0.00,VWS V14.01,2013-03-30 12:14:00,
2013-03-30 05:19:00,40.3,36.4,29.77,North,9,0.0,0.0,86,0.00,,---,0.00,VWS V14.01,2013-03-30 12:19:00,
2013-03-30 05:24:00,40.3,36.4,29.77,North,9,0.0,0.0,86,0.00,,---,0.00,VWS V14.01,2013-03-30 12:24:00,
2013-03-30 05:29:00,39.9,36.1,29.77,North,9,0.0,0.0,86,0.00,,---,0.00,VWS V14.01,2013-03-30 12:29:00,
2013-03-30 05:34:00,39.9,36.1,29.77,North,9,0.0,0.0,86,0.00,,---,0.00,VWS V14.01,2013-03-30 12:34:00,
2013-03-30 05:39:00,39.7,35.9,29.77,North,9,0.0,0.0,86,0.00,,---,0.00,VWS V14.01,2013-03-30 12:39:00,
2013-03-30 05:44:00,39.7,35.9,29.77,North,9,0.0,0.0,86,0.00,,---,0.00,VWS V14.01,2013-03-30 12:44:00,
2013-03-30 05:49:00,39.6,35.7,29.77,North,9,0.0,0.0,86,0.00,,---,0.00,VWS V14.01,2013-03-30 12:49:00,
2013-03-30 05:54:00,39.4,35.5,29.77,North,9,0.0,0.0,86,0.00,,---,0.00,VWS V14.01,2013-03-30 12:54:00,
2013-03-30 05:59:00,39.4,35.5,29.77,North,9,0.0,0.0,86,0.00,,---,0.00,VWS V14.01,2013-03-30 12:59:00,
2013-03-30 06:04:00,39.4,35.5,29.77,North,9,0.0,0.0,86,0.00,,---,0.00,VWS V14.01,2013-03-30 13:04:00,
2013-03-30 06:09:00,39.2,35.4,29.77,North,9,0.0,0.0,86,0.00,,---,0.00,VWS V14.01,2013-03-30 13:09:00,
2013-03-30 06:14:00,39.2,35.4,29.77,North,9,0.0,0.0,86,0.00,,---,0.00,VWS V14.01,2013-03-30 13:14:00,
2013-03-30 06:19:00,39.0,35.5,29.77,North,9,0.0,0.0,87,0.00,,---,0.00,VWS V14.01,2013-03-30 13:19:00,
2013-03-30 06:24:00,39.2,35.4,29.77,North,9,0.0,0.0,86,0.00,,---,0.00,VWS V14.01,2013-03-30 13:24:00,
2013-03-30 06:29:00,39.0,35.5,29.77,North,9,0.0,0.0,87,0.00,,---,0.00,VWS V14.01,2013-03-30 13:29:00,
2013-03-30 06:34:00,38.8,35.3,29.77,North,9,0.0,0.0,87,0.00,,---,0.00,VWS V14.01,2013-03-30 13:34:00,
2013-03-30 06:39:00,38.8,35.3,29.77,North,9,0.0,0.0,87,0.00,,---,0.00,VWS V14.01,2013-03-30 13:39:00,
2013-03-30 06:44:00,38.7,35.1,29.77,North,9,0.0,0.0,87,0.00,,---,0.00,VWS V14.01,2013-03-30 13:44:00,
2013-03-30 06:49:00,38.7,35.1,29.77,North,9,0.0,0.0,87,0.00,,---,0.00,VWS V14.01,2013-03-30 13:49:00,
2013-03-30 06:54:00,38.7,35.1,29.77,North,9,0.0,0.0,87,0.00,,---,0.00,VWS V14.01,2013-03-30 13:54:00,
2013-03-30 06:59:00,38.7,35.1,29.77,North,9,0.0,0.0,87,0.00,,---,0.00,VWS V14.01,2013-03-30 13:59:00,
2013-03-30 07:04:00,38.5,35.0,29.77,North,9,0.0,0.0,87,0.00,,---,0.00,VWS V14.01,2013-03-30 14:04:00,
2013-03-30 07:09:00,38.5,35.0,29.77,North,9,0.0,0.0,87,0.00,,---,0.00,VWS V14.01,2013-03-30 14:09:00,
2013-03-30 07:14:00,38.5,35.0,29.77,North,9,0.0,0.0,87,0.00,,---,0.00,VWS V14.01,2013-03-30 14:14:00,
2013-03-30 07:19:00,38.5,35.0,29.77,North,9,0.0,0.0,87,0.00,,---,0.00,VWS V14.01,2013-03-30 14:19:00,
2013-03-30 07:24:00,38.5,35.0,29.77,North,9,0.0,0.0,87,0.00,,---,0.00,VWS V14.01,2013-03-30 14:24:00,
2013-03-30 07:29:00,38.5,35.0,29.77,North,9,0.0,0.0,87,0.00,,---,0.00,VWS V14.01,2013-03-30 14:29:00,
2013-03-30 07:34:00,38.5,35.0,29.77,North,9,0.0,0.0,87,0.00,,---,0.00,VWS V14.01,2013-03-30 14:34:00,
2013-03-30 07:39:00,38.7,35.4,29.77,North,9,0.0,0.0,88,0.00,,---,0.00,VWS V14.01,2013-03-30 14:39:00,
2013-03-30 07:44:00,38.7,35.4,29.77,North,9,0.0,0.0,88,0.00,,---,0.00,VWS V14.01,2013-03-30 14:44:00,
2013-03-30 07:49:00,38.8,35.6,29.77,North,9,0.0,0.0,88,0.00,,---,0.00,VWS V14.01,2013-03-30 14:49:00,
2013-03-30 07:54:00,38.8,35.6,29.77,North,9,0.0,0.0,88,0.00,,---,0.00,VWS V14.01,2013-03-30 14:54:00,
2013-03-30 07:59:00,39.2,36.0,29.77,North,9,0.0,0.0,88,0.00,,---,0.00,VWS V14.01,2013-03-30 14:59:00,
2013-03-30 08:04:00,39.2,36.0,29.77,North,9,0.0,0.0,88,0.00,,---,0.00,VWS V14.01,2013-03-30 15:04:00,
2013-03-30 08:09:00,39.7,36.5,29.77,North,9,0.0,0.0,88,0.00,,---,0.00,VWS V14.01,2013-03-30 15:09:00,
2013-03-30 08:14:00,40.3,37.3,29.77,North,9,0.0,0.0,89,0.00,,---,0.00,VWS V14.01,2013-03-30 15:14:00,
2013-03-30 08:19:00,40.5,37.5,29.77,North,9,0.0,0.0,89,0.00,,---,0.00,VWS V14.01,2013-03-30 15:19:00,
2013-03-30 08:24:00,40.5,37.5,29.77,North,9,0.0,0.0,89,0.00,,---,0.00,VWS V14.01,2013-03-30 15:24:00,
2013-03-30 08:29:00,40.5,37.5,29.77,North,9,0.0,0.0,89,0.00,,---,0.00,VWS V14.01,2013-03-30 15:29:00,
2013-03-30 08:34:00,40.5,37.5,29.77,North,9,0.0,0.0,89,0.00,,---,0.00,VWS V14.01,2013-03-30 15:34:00,
2013-03-30 08:39:00,40.5,37.5,29.77,North,9,0.0,0.0,89,0.00,,---,0.00,VWS V14.01,2013-03-30 15:39:00,
2013-03-30 08:44:00,40.5,37.5,29.77,North,9,0.0,0.0,89,0.00,,---,0.00,VWS V14.01,2013-03-30 15:44:00,
2013-03-30 08:49:00,40.5,37.5,29.77,North,9,0.0,0.0,89,0.00,,---,0.00,VWS V14.01,2013-03-30 15:49:00,
2013-03-30 08:54:00,40.5,37.5,29.77,North,9,0.0,0.0,89,0.00,,---,0.00,VWS V14.01,2013-03-30 15:54:00,
2013-03-30 08:59:00,40.5,37.5,29.77,North,9,0.0,0.0,89,0.00,,---,0.00,VWS V14.01,2013-03-30 15:59:00,
2013-03-30 09:04:00,40.5,37.5,29.77,North,9,0.0,0.0,89,0.00,,---,0.00,VWS V14.01,2013-03-30 16:04:00,
2013-03-30 09:09:00,40.5,37.5,29.77,North,9,0.0,0.0,89,0.00,,---,0.00,VWS V14.01,2013-03-30 16:09:00,
2013-03-30 09:14:00,40.5,37.5,29.77,North,9,0.0,0.0,89,0.00,,---,0.00,VWS V14.01,2013-03-30 16:14:00,
2013-03-30 09:19:00,40.5,37.5,29.77,NE,45,0.0,0.0,89,0.00,,---,0.00,VWS V14.01,2013-03-30 16:19:00,
2013-03-30 09:24:00,40.5,37.5,29.77,ENE,64,0.0,0.0,89,0.00,,---,0.00,VWS V14.01,2013-03-30 16:24:00,
2013-03-30 09:29:00,40.5,37.5,29.77,ESE,108,0.0,0.0,89,0.00,,---,0.00,VWS V14.01,2013-03-30 16:29:00,
2013-03-30 09:34:00,40.5,37.5,29.77,ESE,108,0.0,0.0,89,0.00,,---,0.00,VWS V14.01,2013-03-30 16:34:00,
2013-03-30 09:39:00,40.5,37.5,29.77,SSE,167,0.0,0.0,89,0.00,,---,0.00,VWS V14.01,2013-03-30 16:39:00,
2013-03-30 09:44:00,40.5,37.5,29.77,ESE,102,0.0,0.0,89,0.00,,---,0.00,VWS V14.01,2013-03-30 16:44:00,
2013-03-30 09:49:00,40.5,37.5,29.77,NE,39,0.0,0.0,89,0.00,,---,0.00,VWS V14.01,2013-03-30 16:49:00,
2013-03-30 09:54:00,40.5,37.5,29.77,NNE,19,0.0,0.0,89,0.00,,---,0.00,VWS V14.01,2013-03-30 16:54:00,
2013-03-30 09:59:00,40.5,37.5,29.77,SE,146,0.0,0.0,89,0.00,,---,0.00,VWS V14.01,2013-03-30 16:59:00,
2013-03-30 10:04:00,40.5,37.5,29.77,NE,54,0.0,0.0,89,0.00,,---,0.00,VWS V14.01,2013-03-30 17:04:00,
2013-03-30 10:09:00,40.5,37.5,29.77,SW,222,0.0,0.0,89,0.00,,---,0.00,VWS V14.01,2013-03-30 17:09:00,
2013-03-30 10:14:00,40.5,37.5,29.77,SSE,151,0.0,0.0,89,0.00,,---,0.00,VWS V14.01,2013-03-30 17:14:00,
2013-03-30 10:19:00,40.5,37.5,29.77,NNE,32,2.7,2.7,89,0.00,,---,0.00,VWS V14.01,2013-03-30 17:19:00,
2013-03-30 10:24:00,52.0,44.7,29.74,WSW,241,0.0,0.0,76,0.00,,---,0.00,VWS V14.01,2013-03-30 17:24:00,
2013-03-30 10:29:00,52.0,44.7,29.74,WSW,248,0.0,0.0,76,0.00,,---,0.00,VWS V14.01,2013-03-30 17:29:00,
2013-03-30 10:34:00,52.0,44.7,29.74,SE,143,0.0,0.0,76,0.00,,---,0.00,VWS V14.01,2013-03-30 17:34:00,
2013-03-30 10:39:00,52.0,44.7,29.74,WSW,238,2.2,2.2,76,0.00,,---,0.00,VWS V14.01,2013-03-30 17:39:00,
2013-03-30 10:44:00,54.9,46.4,29.74,West,263,4.0,4.0,73,0.00,,---,0.00,VWS V14.01,2013-03-30 17:44:00,
2013-03-30 10:49:00,55.8,46.5,29.77,WSW,243,0.0,0.0,71,0.00,,---,0.00,VWS V14.01,2013-03-30 17:49:00,
2013-03-30 10:54:00,55.8,46.5,29.77,West,280,0.0,0.0,71,0.00,,---,0.00,VWS V14.01,2013-03-30 17:54:00,
2013-03-30 10:59:00,57.0,47.3,29.77,SW,221,0.0,0.0,70,0.00,,---,0.00,VWS V14.01,2013-03-30 17:59:00,
2013-03-30 11:04:00,57.0,47.3,29.77,East,94,0.0,0.0,70,0.00,,---,0.00,VWS V14.01,2013-03-30 18:04:00,
2013-03-30 11:09:00,58.1,47.6,29.74,North,9,3.6,3.6,68,0.00,,---,0.00,VWS V14.01,2013-03-30 18:09:00,
2013-03-30 11:14:00,58.1,47.6,29.74,SE,133,2.7,2.7,68,0.00,,---,0.00,VWS V14.01,2013-03-30 18:14:00,
2013-03-30 11:19:00,59.4,48.0,29.74,ESE,110,0.0,2.2,66,0.00,,---,0.00,VWS V14.01,2013-03-30 18:19:00,
2013-03-30 11:24:00,59.4,48.0,29.74,SSE,149,0.0,0.0,66,0.00,,---,0.00,VWS V14.01,2013-03-30 18:24:00,
2013-03-30 11:29:00,60.8,48.6,29.74,ESE,102,0.0,0.0,64,0.00,,---,0.00,VWS V14.01,2013-03-30 18:29:00,
2013-03-30 11:34:00,60.8,48.6,29.74,SE,126,0.0,0.0,64,0.00,,---,0.00,VWS V14.01,2013-03-30 18:34:00,
2013-03-30 11:39:00,61.7,47.7,29.74,ESE,113,3.1,3.1,60,0.00,,---,0.00,VWS V14.01,2013-03-30 18:39:00,
2013-03-30 11:44:00,62.4,47.0,29.74,West,279,4.0,4.0,57,0.00,,---,0.00,VWS V14.01,2013-03-30 18:44:00,
2013-03-30 11:49:00,62.4,47.0,29.74,SW,227,3.6,3.6,57,0.00,,---,0.00,VWS V14.01,2013-03-30 18:49:00,
2013-03-30 11:54:00,63.5,47.5,29.74,SSW,192,0.0,0.0,56,0.00,,---,0.00,VWS V14.01,2013-03-30 18:54:00,
2013-03-30 11:59:00,63.5,47.5,29.74,WSW,246,0.0,0.0,56,0.00,,---,0.00,VWS V14.01,2013-03-30 18:59:00,
2013-03-30 12:04:00,64.4,47.9,29.74,NNW,339,0.0,2.7,55,0.00,,---,0.00,VWS V14.01,2013-03-30 19:04:00,
2013-03-30 12:09:00,64.4,47.9,29.74,WSW,238,5.4,5.4,55,0.00,,---,0.00,VWS V14.01,2013-03-30 19:09:00,
2013-03-30 12:14:00,64.4,47.9,29.74,WSW,245,0.0,2.7,55,0.00,,---,0.00,VWS V14.01,2013-03-30 19:14:00,
2013-03-30 12:19:00,64.4,47.9,29.74,WNW,292,2.7,2.7,55,0.00,,---,0.00,VWS V14.01,2013-03-30 19:19:00,
2013-03-30 12:24:00,64.4,47.9,29.74,SW,234,2.7,2.7,55,0.00,,---,0.00,VWS V14.01,2013-03-30 19:24:00,
2013-03-30 12:29:00,64.4,47.9,29.74,East,96,2.7,2.7,55,0.00,,---,0.00,VWS V14.01,2013-03-30 19:29:00,
2013-03-30 12:34:00,64.4,47.9,29.74,WNW,287,5.8,5.8,55,0.00,,---,0.00,VWS V14.01,2013-03-30 19:34:00,
2013-03-30 12:39:00,64.4,47.9,29.74,South,177,3.1,3.1,55,0.00,,---,0.00,VWS V14.01,2013-03-30 19:39:00,
2013-03-30 12:44:00,64.4,47.9,29.74,WSW,242,2.7,2.7,55,0.00,,---,0.00,VWS V14.01,2013-03-30 19:44:00,
2013-03-30 12:49:00,64.4,47.9,29.74,WSW,247,4.0,4.0,55,0.00,,---,0.00,VWS V14.01,2013-03-30 19:49:00,
2013-03-30 12:54:00,64.4,47.9,29.74,WSW,238,5.4,5.4,55,0.00,,---,0.00,VWS V14.01,2013-03-30 19:54:00,
2013-03-30 12:59:00,64.4,47.9,29.74,WNW,285,0.0,2.2,55,0.00,,---,0.00,VWS V14.01,2013-03-30 19:59:00,
2013-03-30 13:04:00,64.4,47.9,29.74,WNW,283,0.0,0.0,55,0.00,,---,0.00,VWS V14.01,2013-03-30 20:04:00,
2013-03-30 13:09:00,64.4,47.9,29.74,SW,236,2.7,2.7,55,0.00,,---,0.00,VWS V14.01,2013-03-30 20:09:00,
2013-03-30 13:14:00,64.4,47.9,29.74,SW,234,2.2,2.2,55,0.00,,---,0.00,VWS V14.01,2013-03-30 20:14:00,
2013-03-30 13:19:00,64.4,47.9,29.74,ESE,118,0.0,0.0,55,0.00,,---,0.00,VWS V14.01,2013-03-30 20:19:00,
2013-03-30 13:24:00,64.4,47.9,29.74,WSW,250,0.0,2.7,55,0.00,,---,0.00,VWS V14.01,2013-03-30 20:24:00,
2013-03-30 13:29:00,64.4,47.9,29.74,ENE,70,2.2,2.2,55,0.00,,---,0.00,VWS V14.01,2013-03-30 20:29:00,
2013-03-30 13:34:00,64.4,47.9,29.74,WNW,285,2.7,2.7,55,0.00,,---,0.00,VWS V14.01,2013-03-30 20:34:00,
2013-03-30 13:39:00,64.4,47.9,29.71,ESE,114,0.0,0.0,55,0.00,,---,0.00,VWS V14.01,2013-03-30 20:39:00,
2013-03-30 13:44:00,64.4,47.9,29.71,SE,133,0.0,0.0,55,0.00,,---,0.00,VWS V14.01,2013-03-30 20:44:00,
2013-03-30 13:49:00,64.4,47.9,29.71,SE,128,2.2,2.2,55,0.00,,---,0.00,VWS V14.01,2013-03-30 20:49:00,
2013-03-30 13:53:00,64.4,47.9,29.71,West,263,3.1,3.1,55,0.00,,---,0.00,VWS V14.01,2013-03-30 20:53:00,
2013-03-30 13:58:00,64.4,47.9,29.71,NNE,32,3.1,3.1,55,0.00,,---,0.00,VWS V14.01,2013-03-30 20:58:00,
2013-03-30 14:03:00,64.4,47.9,29.71,West,266,0.0,0.0,55,0.00,,---,0.00,VWS V14.01,2013-03-30 21:03:00,
2013-03-30 14:08:00,64.4,47.9,29.71,SW,228,3.1,3.1,55,0.00,,---,0.00,VWS V14.01,2013-03-30 21:08:00,
2013-03-30 14:14:00,64.4,47.9,29.71,WSW,246,0.0,0.0,55,0.00,,---,0.00,VWS V14.01,2013-03-30 21:14:00,
2013-03-30 14:19:00,64.4,47.9,29.71,West,276,5.4,5.4,55,0.00,,---,0.00,VWS V14.01,2013-03-30 21:19:00,
2013-03-30 14:24:00,64.4,47.9,29.71,NW,311,0.0,0.0,55,0.00,,---,0.00,VWS V14.01,2013-03-30 21:24:00,
2013-03-30 14:29:00,64.4,47.9,29.71,NE,54,0.0,0.0,55,0.00,,---,0.00,VWS V14.01,2013-03-30 21:29:00,
2013-03-30 14:34:00,64.4,47.9,29.71,NNE,23,5.8,5.8,55,0.00,,---,0.00,VWS V14.01,2013-03-30 21:34:00,
2013-03-30 14:39:00,64.4,47.9,29.71,South,191,0.0,2.2,55,0.00,,---,0.00,VWS V14.01,2013-03-30 21:39:00,
2013-03-30 14:43:00,64.4,47.9,29.71,West,267,2.7,2.7,55,0.00,,---,0.00,VWS V14.01,2013-03-30 21:43:00,
2013-03-30 14:49:00,64.4,47.9,29.71,WSW,254,2.7,2.7,55,0.00,,---,0.00,VWS V14.01,2013-03-30 21:49:00,
2013-03-30 14:54:00,64.4,47.9,29.71,WSW,244,3.1,3.1,55,0.00,,---,0.00,VWS V14.01,2013-03-30 21:54:00,
2013-03-30 14:59:00,64.4,47.9,29.71,West,274,2.7,2.7,55,0.00,,---,0.00,VWS V14.01,2013-03-30 21:59:00,
2013-03-30 15:04:00,64.4,47.9,29.71,West,270,4.5,4.5,55,0.00,,---,0.00,VWS V14.01,2013-03-30 22:04:00,
2013-03-30 15:09:00,64.4,47.9,29.71,NW,326,2.2,2.2,55,0.00,,---,0.00,VWS V14.01,2013-03-30 22:09:00,
2013-03-30 15:13:00,64.4,47.9,29.71,West,265,2.2,2.2,55,0.00,,---,0.00,VWS V14.01,2013-03-30 22:13:00,
2013-03-30 15:18:00,64.4,47.9,29.68,WSW,258,4.0,4.0,55,0.00,,---,0.00,VWS V14.01,2013-03-30 22:18:00,
2013-03-30 15:24:00,64.4,47.9,29.68,SW,228,6.3,6.3,55,0.00,,---,0.00,VWS V14.01,2013-03-30 22:24:00,
2013-03-30 15:29:00,64.4,47.9,29.68,NE,54,0.0,0.0,55,0.00,,---,0.00,VWS V14.01,2013-03-30 22:29:00,
2013-03-30 15:34:00,64.4,47.9,29.68,ENE,72,2.2,4.5,55,0.00,,---,0.00,VWS V14.01,2013-03-30 22:34:00,
2013-03-30 15:38:00,64.4,47.9,29.68,West,259,0.0,0.0,55,0.00,,---,0.00,VWS V14.01,2013-03-30 22:38:00,
2013-03-30 15:43:00,64.4,47.9,29.68,South,172,0.0,0.0,55,0.00,,---,0.00,VWS V14.01,2013-03-30 22:43:00,
2013-03-30 15:48:00,64.4,47.9,29.68,East,97,0.0,0.0,55,0.00,,---,0.00,VWS V14.01,2013-03-30 22:48:00,
2013-03-30 15:53:00,64.4,47.9,29.68,WSW,241,0.0,0.0,55,0.00,,---,0.00,VWS V14.01,2013-03-30 22:53:00,
2013-03-30 15:58:00,64.4,47.9,29.68,West,267,2.2,2.2,55,0.00,,---,0.00,VWS V14.01,2013-03-30 22:58:00,
2013-03-30 16:03:00,64.4,47.9,29.68,West,275,0.0,3.1,55,0.00,,---,0.00,VWS V14.01,2013-03-30 23:03:00,
2013-03-30 16:08:00,64.4,47.9,29.68,West,275,0.0,0.0,55,0.00,,---,0.00,VWS V14.01,2013-03-30 23:08:00,
2013-03-30 16:13:00,64.4,47.9,29.68,South,184,2.2,2.7,55,0.00,,---,0.00,VWS V14.01,2013-03-30 23:13:00,
2013-03-30 16:18:00,64.4,47.9,29.68,WSW,249,0.0,0.0,55,0.00,,---,0.00,VWS V14.01,2013-03-30 23:18:00,
2013-03-30 16:23:00,64.4,47.9,29.68,SSE,147,2.2,2.2,55,0.00,,---,0.00,VWS V14.01,2013-03-30 23:23:00,
2013-03-30 16:28:00,64.4,47.9,29.68,NNE,12,0.0,0.0,55,0.00,,---,0.00,VWS V14.01,2013-03-30 23:28:00,
2013-03-30 16:33:00,64.4,47.9,29.68,WSW,256,4.0,4.0,55,0.00,,---,0.00,VWS V14.01,2013-03-30 23:33:00,
2013-03-30 16:38:00,64.4,47.9,29.68,NNE,16,0.0,0.0,55,0.00,,---,0.00,VWS V14.01,2013-03-30 23:38:00,
2013-03-30 16:43:00,64.4,47.9,29.68,ENE,60,4.0,4.0,55,0.00,,---,0.00,VWS V14.01,2013-03-30 23:43:00,
2013-03-30 16:48:00,64.4,47.9,29.68,NNE,33,3.1,3.1,55,0.00,,---,0.00,VWS V14.01,2013-03-30 23:48:00,
2013-03-30 16:53:00,64.4,47.9,29.68,East,97,2.2,2.2,55,0.00,,---,0.00,VWS V14.01,2013-03-30 23:53:00,
2013-03-30 16:58:00,64.4,47.9,29.65,North,9,2.2,2.2,55,0.00,,---,0.00,VWS V14.01,2013-03-30 23:58:00,
2013-03-30 17:03:00,64.4,47.9,29.65,East,86,2.7,2.7,55,0.00,,---,0.00,VWS V14.01,2013-03-31 00:03:00,
2013-03-30 17:08:00,64.4,47.9,29.65,West,272,0.0,0.0,55,0.00,,---,0.00,VWS V14.01,2013-03-31 00:08:00,
2013-03-30 17:13:00,64.4,47.9,29.65,East,92,0.0,0.0,55,0.00,,---,0.00,VWS V14.01,2013-03-31 00:13:00,
2013-03-30 17:18:00,64.4,47.9,29.65,NW,326,0.0,0.0,55,0.00,,---,0.00,VWS V14.01,2013-03-31 00:18:00,
2013-03-30 17:23:00,64.4,47.9,29.65,West,259,3.1,3.1,55,0.00,,---,0.00,VWS V14.01,2013-03-31 00:23:00,
2013-03-30 17:28:00,64.4,47.9,29.65,NNE,27,0.0,0.0,55,0.00,,---,0.00,VWS V14.01,2013-03-31 00:28:00,
2013-03-30 17:33:00,64.4,47.9,29.65,South,190,0.0,0.0,55,0.00,,---,0.00,VWS V14.01,2013-03-31 00:33:00,
2013-03-30 17:38:00,64.4,47.9,29.65,South,170,0.0,0.0,55,0.00,,---,0.00,VWS V14.01,2013-03-31 00:38:00,
2013-03-30 17:44:00,64.4,47.9,29.65,NNW,328,0.0,0.0,55,0.00,,---,0.00,VWS V14.01,2013-03-31 00:44:00,
2013-03-30 17:49:00,64.4,47.9,29.65,NNE,27,0.0,0.0,55,0.00,,---,0.00,VWS V14.01,2013-03-31 00:49:00,
2013-03-30 17:54:00,64.4,47.9,29.65,North,8,0.0,0.0,55,0.00,,---,0.00,VWS V14.01,2013-03-31 00:54:00,
2013-03-30 17:59:00,64.4,47.9,29.65,NNE,29,0.0,0.0,55,0.00,,---,0.00,VWS V14.01,2013-03-31 00:59:00,
2013-03-30 18:04:00,64.4,47.9,29.65,SW,235,0.0,0.0,55,0.00,,---,0.00,VWS V14.01,2013-03-31 01:04:00,
2013-03-30 18:09:00,64.4,47.9,29.65,NE,44,0.0,0.0,55,0.00,,---,0.00,VWS V14.01,2013-03-31 01:09:00,
2013-03-30 18:14:00,64.4,47.9,29.65,East,98,0.0,0.0,55,0.00,,---,0.00,VWS V14.01,2013-03-31 01:14:00,
2013-03-30 18:19:00,64.4,47.9,29.65,SE,127,0.0,0.0,55,0.00,,---,0.00,VWS V14.01,2013-03-31 01:19:00,
2013-03-30 18:24:00,64.4,47.9,29.65,SSE,150,3.1,3.1,55,0.00,,---,0.00,VWS V14.01,2013-03-31 01:24:00,
2013-03-30 18:29:00,64.4,47.9,29.65,East,101,0.0,0.0,55,0.00,,---,0.00,VWS V14.01,2013-03-31 01:29:00,
2013-03-30 18:34:00,64.4,47.9,29.65,East,101,0.0,0.0,55,0.00,,---,0.00,VWS V14.01,2013-03-31 01:34:00,
2013-03-30 18:39:00,64.4,47.9,29.65,NE,54,2.7,2.7,55,0.00,,---,0.00,VWS V14.01,2013-03-31 01:39:00,
2013-03-30 18:44:00,64.4,47.9,29.65,WNW,283,0.0,0.0,55,0.00,,---,0.00,VWS V14.01,2013-03-31 01:44:00,
2013-03-30 18:49:00,64.4,47.9,29.65,WNW,283,0.0,0.0,55,0.00,,---,0.00,VWS V14.01,2013-03-31 01:49:00,
2013-03-30 18:54:00,64.4,47.9,29.65,WNW,283,0.0,0.0,55,0.00,,---,0.00,VWS V14.01,2013-03-31 01:54:00,
2013-03-30 18:58:00,64.4,47.9,29.65,WNW,283,0.0,0.0,55,0.00,,---,0.00,VWS V14.01,2013-03-31 01:58:00,
2013-03-30 19:04:00,64.4,47.9,29.62,WNW,283,0.0,0.0,55,0.00,,---,0.00,VWS V14.01,2013-03-31 02:04:00,
2013-03-30 19:09:00,64.4,47.9,29.62,WNW,283,0.0,0.0,55,0.00,,---,0.00,VWS V14.01,2013-03-31 02:09:00,
2013-03-30 19:14:00,64.4,47.9,29.62,North,5,3.6,3.6,55,0.00,,---,0.00,VWS V14.01,2013-03-31 02:14:00,
2013-03-30 19:18:00,64.4,47.9,29.62,North,5,0.0,0.0,55,0.00,,---,0.00,VWS V14.01,2013-03-31 02:18:00,
2013-03-30 19:23:00,64.4,47.9,29.62,North,5,0.0,0.0,55,0.00,,---,0.00,VWS V14.01,2013-03-31 02:23:00,
2013-03-30 19:29:00,64.4,47.9,29.62,North,5,0.0,0.0,55,0.00,,---,0.00,VWS V14.01,2013-03-31 02:29:00,
2013-03-30 19:34:00,64.4,47.9,29.62,North,5,0.0,0.0,55,0.00,,---,0.00,VWS V14.01,2013-03-31 02:34:00,
2013-03-30 19:38:00,64.4,47.9,29.62,North,5,0.0,0.0,55,0.00,,---,0.00,VWS V14.01,2013-03-31 02:38:00,
2013-03-30 19:43:00,64.4,47.9,29.62,North,5,0.0,0.0,55,0.00,,---,0.00,VWS V14.01,2013-03-31 02:43:00,
2013-03-30 19:48:00,64.4,47.9,29.62,North,5,0.0,0.0,55,0.00,,---,0.00,VWS V14.01,2013-03-31 02:48:00,
2013-03-30 19:53:00,64.4,47.9,29.62,North,5,0.0,0.0,55,0.00,,---,0.00,VWS V14.01,2013-03-31 02:53:00,
2013-03-30 19:58:00,64.4,47.9,29.62,North,5,0.0,0.0,55,0.00,,---,0.00,VWS V14.01,2013-03-31 02:58:00,
2013-03-30 20:03:00,64.4,47.9,29.62,North,5,0.0,0.0,55,0.00,,---,0.00,VWS V14.01,2013-03-31 03:03:00,
2013-03-30 20:08:00,64.4,47.9,29.62,North,5,0.0,0.0,55,0.00,,---,0.00,VWS V14.01,2013-03-31 03:08:00,
2013-03-30 20:13:00,64.4,47.9,29.65,North,5,0.0,0.0,55,0.00,,---,0.00,VWS V14.01,2013-03-31 03:13:00,
2013-03-30 20:18:00,64.4,47.9,29.65,North,5,0.0,0.0,55,0.00,,---,0.00,VWS V14.01,2013-03-31 03:18:00,
2013-03-30 20:23:00,64.4,47.9,29.65,North,5,0.0,0.0,55,0.00,,---,0.00,VWS V14.01,2013-03-31 03:23:00,
2013-03-30 20:28:00,64.4,47.9,29.65,North,5,0.0,0.0,55,0.00,,---,0.00,VWS V14.01,2013-03-31 03:28:00,
2013-03-30 20:33:00,64.4,47.9,29.65,North,5,0.0,0.0,55,0.00,,---,0.00,VWS V14.01,2013-03-31 03:33:00,
2013-03-30 20:38:00,64.4,47.9,29.65,North,5,0.0,0.0,55,0.00,,---,0.00,VWS V14.01,2013-03-31 03:38:00,
2013-03-30 20:43:00,64.4,47.9,29.65,North,5,0.0,0.0,55,0.00,,---,0.00,VWS V14.01,2013-03-31 03:43:00,
2013-03-30 20:48:00,64.4,47.9,29.65,North,5,0.0,0.0,55,0.00,,---,0.00,VWS V14.01,2013-03-31 03:48:00,
2013-03-30 20:53:00,64.4,47.9,29.65,North,5,0.0,0.0,55,0.00,,---,0.00,VWS V14.01,2013-03-31 03:53:00,
2013-03-30 20:58:00,64.4,47.9,29.65,North,5,0.0,0.0,55,0.00,,---,0.00,VWS V14.01,2013-03-31 03:58:00,
2013-03-30 21:00:00,64.4,47.9,29.65,North,5,0.0,0.0,55,0.00,,---,0.00,VWS V14.01,2013-03-31 04:00:00,
2013-03-30 21:05:00,64.4,47.9,29.65,North,5,0.0,0.0,55,0.00,,---,0.00,VWS V14.01,2013-03-31 04:05:00,
2013-03-30 21:10:00,64.4,47.9,29.65,North,5,0.0,0.0,55,0.00,,---,0.00,VWS V14.01,2013-03-31 04:10:00,
2013-03-30 21:15:00,64.4,47.9,29.65,North,5,0.0,0.0,55,0.00,,---,0.00,VWS V14.01,2013-03-31 04:15:00,
2013-03-30 21:20:00,64.4,47.9,29.65,North,5,0.0,0.0,55,0.00,,---,0.00,VWS V14.01,2013-03-31 04:20:00,
2013-03-30 21:25:00,64.4,47.9,29.65,North,5,0.0,0.0,55,0.00,,---,0.00,VWS V14.01,2013-03-31 04:25:00,
2013-03-30 21:30:00,64.4,47.9,29.65,North,5,0.0,0.0,55,0.00,,---,0.00,VWS V14.01,2013-03-31 04:30:00,
2013-03-30 21:35:00,64.4,47.9,29.65,North,5,0.0,0.0,55,0.00,,---,0.00,VWS V14.01,2013-03-31 04:35:00,
2013-03-30 21:40:00,64.4,47.9,29.65,North,5,0.0,0.0,55,0.00,,---,0.00,VWS V14.01,2013-03-31 04:40:00,
2013-03-30 21:45:00,64.4,47.9,29.65,North,5,0.0,0.0,55,0.00,,---,0.00,VWS V14.01,2013-03-31 04:45:00,
2013-03-30 21:50:00,64.4,47.9,29.65,North,5,0.0,0.0,55,0.00,,---,0.00,VWS V14.01,2013-03-31 04:50:00,
2013-03-30 21:55:00,64.4,47.9,29.65,North,5,0.0,0.0,55,0.00,,---,0.00,VWS V14.01,2013-03-31 04:55:00,
2013-03-30 22:00:00,64.4,47.9,29.65,North,5,0.0,0.0,55,0.00,,---,0.00,VWS V14.01,2013-03-31 05:00:00,
2013-03-30 22:05:00,64.4,47.9,29.65,North,5,0.0,0.0,55,0.00,,---,0.00,VWS V14.01,2013-03-31 05:05:00,
2013-03-30 22:10:00,64.4,47.9,29.65,North,5,0.0,0.0,55,0.00,,---,0.00,VWS V14.01,2013-03-31 05:10:00,
2013-03-30 22:15:00,64.4,47.9,29.65,North,5,0.0,0.0,55,0.00,,---,0.00,VWS V14.01,2013-03-31 05:15:00,
2013-03-30 22:20:00,64.4,47.9,29.65,North,5,0.0,0.0,55,0.00,,---,0.00,VWS V14.01,2013-03-31 05:20:00,
2013-03-30 22:25:00,64.4,47.9,29.65,North,5,0.0,0.0,55,0.00,,---,0.00,VWS V14.01,2013-03-31 05:25:00,
2013-03-30 22:30:00,64.4,47.9,29.65,North,5,0.0,0.0,55,0.00,,---,0.00,VWS V14.01,2013-03-31 05:30:00,
2013-03-30 22:35:00,64.4,47.9,29.65,North,5,0.0,0.0,55,0.00,,---,0.00,VWS V14.01,2013-03-31 05:35:00,
2013-03-30 22:40:00,64.4,47.9,29.65,North,5,0.0,0.0,55,0.00,,---,0.00,VWS V14.01,2013-03-31 05:40:00,
2013-03-30 22:45:00,64.4,47.9,29.65,North,5,0.0,0.0,55,0.00,,---,0.00,VWS V14.01,2013-03-31 05:45:00,
2013-03-30 22:50:00,64.4,47.9,29.65,North,5,0.0,0.0,55,0.00,,---,0.00,VWS V14.01,2013-03-31 05:50:00,
2013-03-30 22:55:00,64.4,47.9,29.65,North,5,0.0,0.0,55,0.00,,---,0.00,VWS V14.01,2013-03-31 05:55:00,
2013-03-30 23:00:00,64.4,47.9,29.65,North,5,0.0,0.0,55,0.00,,---,0.00,VWS V14.01,2013-03-31 06:00:00,
2013-03-30 23:05:00,64.4,47.9,29.65,North,5,0.0,0.0,55,0.00,,---,0.00,VWS V14.01,2013-03-31 06:05:00,
2013-03-30 23:10:00,64.4,47.9,29.62,North,5,0.0,0.0,55,0.00,,---,0.00,VWS V14.01,2013-03-31 06:10:00,
2013-03-30 23:15:00,64.4,47.9,29.62,North,5,0.0,0.0,55,0.00,,---,0.00,VWS V14.01,2013-03-31 06:15:00,
2013-03-30 23:20:00,64.4,47.9,29.62,North,5,0.0,0.0,55,0.00,,---,0.00,VWS V14.01,2013-03-31 06:20:00,
2013-03-30 23:25:00,64.4,47.9,29.62,North,5,0.0,0.0,55,0.00,,---,0.00,VWS V14.01,2013-03-31 06:25:00,
2013-03-30 23:30:00,64.4,47.9,29.62,North,5,0.0,0.0,55,0.00,,---,0.00,VWS V14.01,2013-03-31 06:30:00,
2013-03-30 23:35:00,50.4,41.3,29.62,North,5,0.0,0.0,71,0.00,,---,0.00,VWS V14.01,2013-03-31 06:35:00,
2013-03-30 23:40:00,50.4,41.3,29.62,North,5,0.0,0.0,71,0.00,,---,0.00,VWS V14.01,2013-03-31 06:40:00,
2013-03-30 23:45:00,50.4,41.3,29.62,North,5,0.0,0.0,71,0.00,,---,0.00,VWS V14.01,2013-03-31 06:45:00,
2013-03-30 23:50:00,50.4,41.3,29.62,North,5,0.0,0.0,71,0.00,,---,0.00,VWS V14.01,2013-03-31 06:50:00,
2013-03-30 23:55:00,50.4,41.3,29.62,North,5,0.0,0.0,71,0.00,,---,0.00,VWS V14.01,2013-03-31 06:55:00,